COSMOS 1275 DEB, 15768

Orbit data source: Space-Track

COSMOS 1275 DEB, 15768 is space debris in LEO originally from a launch on Thu, 04 Jun 1981 UTC launched from the Plesetsk Missile And Space Complex (PKMTR). Debris objects in space refer to the collection of defunct objects orbiting the Earth. Examples of debris include non-operational satellites, rocket bodies, and fragments generated from explosions, collisions, or faulty payload assembly.

Loading next visibility...
Identifier
15768, 1981-053KD
Orbit
LEO
Country
Flag of CISCIS
Related business
Manufacturer
Unknown
Mission
Spacecraft
Bus & Motor
Unknown
Mass
Unknown
Launch date (UTC)
1981-06-04 (45 years ago)
Launch vehicle
Unknown
Launch site
Plesetsk Missile And Space Complex (PKMTR)
Object type
Payload
Rocket body
Debris
Shape & HBR
Unknown shape, 0.1 m
Radar Cross Section
Small (<0.1 m²)

Expand to show TLE details & history
Last TLE update: 8 hours ago

TLE from 8 hours ago
0 COSMOS 1275 DEB
1 15768U 81053KD  26062.33598564  .00003520  00000-0  16630-2 0  9991
2 15768  83.0590 284.9587 0047564 276.7506 134.3296 14.18944114 78646
Epoch: 2026-03-03T08:03Z
TLE epoch observation values (Epoch: 2026-03-03T08:03:49.159Z)
Latitude
51.04293°
Longitude
11.50114°
Altitude
861.184 km
Speed
7.414 km/s
True Right ascension
19h 34m 17s
True Declination
50° 52' 37"
Sunlit
Object was in daylight at epoch
Visualization orbit readout
Latitude
Unknown
Longitude
Unknown
Altitude
Unknown
Speed
Unknown
Apparent Right ascension
Unknown
Apparent Declination
Unknown
Sunlit
N/A
Visualization observer readout
Local Sidereal Time
20:06:14
Azimuth
Unknown
Elevation
Unknown
Doppler factor
Unknown
Orbital elements
Apogee altitude
860.275 km
Perigee altitude
791.744 km
Semi-major axis
7,204.147 km
Eccentricity
0.00476
Inclination
83.059°
RAAN
284.9587°
Arg. of periapsis
276.7506°
True anomaly
134.71787°
Mean anomaly
134.3296°
Eccentric anomaly
134.5239°
Mean motion
3.54952 °/min
Orbital period
101.42 mins
BSTAR
0.001663
Loading maneuver chart data...
Computing Atmospheric mass density...
Loading historical data...
Loading historical data...
Loading historical data...
Loading historical data...
Loading historical data...
Loading historical data...
Loading historical data...

Documentation

Showing up to 5 results
|